Weather in Mandalay

Myanmar     21°59′30″N   96°05′46″E
temp.,
°C
wind,
m/s
gust,
m/s
humid.,
%
clouds,
%
prec.,
mm/h
press.,
hPa
HPBL,
m
26 july, mon
mon2600:30+26sse3985100 4.5 1003488
03:30+26s51085100 0.8 1001587
06:30+25s5118698 1.1 1002557
09:30+29s796883 0.1 10031063
12:30+30s896788 0.2 10011100
15:30+29s896880 0.1 9991166
18:30+27s71176100 0.1 1000907
21:30+26s6127835 0.0 1002644
27 july, tue
tue2700:30+26s5117786 0.0 1001667
03:30+25sse498082 0.0 1000509
06:30+26s4980100 0.0 1001547
09:30+26s51078100 0.0 1003787
12:30+28s71071100 0.1 10011158
15:30+28s7117090 0.1 10001042
18:30+26s6127774 0.4 1000802
21:30+26s51178100 0.0 1002600
28 july, wed
wed2800:30+26s4980100 0.1 1002526
03:30+25sse2585100 0.2 1001251
06:30+25s368491 0.2 1002245
09:30+25se2687100 1.5 1003308
12:30+26sse2882100 1.7 1002501
15:30+28sse497156 0.0 1000912
18:30+27sse5117681 0.1 1000579
21:30+26s397845 0.0 1003330
29 july, thu
thu2900:30+26sse388063 0.0 1002308
03:30+25sse388137 0.0 1002331
06:30+26sse377971 0.1 1003378
09:30+29s596685 0.0 1003805
12:30+32ssw785497 0.0 10021457
15:30+32ssw4755100 0.1 9991035
18:30+31s496296 0.1 1000450
21:30+28s6127278 0.1 1003607
30 july, fri
fri3000:30+28s61274100 0.1 1003680
03:30+27s51275100 0.0 1002694
06:30+27s51078100 0.0 1004643
09:30+31s7859100 0.0 10041390
12:30+33s6754100 0.2 10021741
15:30+33ssw5652100 0.0 10001683
18:30+32s476098 0.0 1000413
21:30+29s61272100 0.2 1002605